Lid_Strength_Index
0 -1 -2 -2 -1 -1 -1 -1 -1 -1 -1 -1 -2 -1 -1 -1 -2 -2 -1 -1 -2 -2 -2 -2 -2 -2 -2 -2 -2 -2 -2 -1 -2 -2 -2 -2 -2 -2 -2 -2 -3 -1 -2
-0 -1 -1 -1 -2 -1 -1 -1 -1 -1 -1 -1 -1 -1 -1 -1 -1 -2 -2 -1 -2 -2 -2 -2 -2 -2 -2 -2 -1 -1 -1 -2 -2 -1 -1 -2 -2 -2 -2 -2 -2 -1 -2
-0 -1 -1 -1 -1 -1 -1 -1 -1 -1 -1 -1 -1 -1 -1 -1 -1 -1 -1 -1 -1 -1 -2 -2 -2 -2 -2 -1 -1 -2 -2 -2 -1 -1 -2 -1 -1 -1 -2 -1 -1 -1 -1
-1 -1 -1 -1 -1 -1 -1 -1 -1 -1 -1 -1 -1 -1 -1 -1 -1 -1 -1 -1 -1 -1 -1 -2 -2 -2 -1 -2 -2 -2 -2 -1 -1 -1 -0 -0 -1 -1 -2 -1 -1 -1 -1
-0 -1 -1 -1 -1 -1 -1 -1 -1 -1 -1 -1 -1 -1 -1 -1 -1 -1 -1 -1 -1 -1 -1 -1 -2 -1 -2 -1 -2 -1 -1 -0 -0 -0 -0 -0 -1 -1 -1 -1 -0 -0 -1
-0 -1 -1 -1 -1 -1 -1 -1 -1 -1 -1 -1 -1 -1 -1 -1 -1 -1 -1 -1 -2 -1 -1 -1 -1 -1 -1 -1 -1 -1 -0 -0 -1 0 -0 -0 -1 -1 -1 -1 -0 0 0
-0 -1 -1 -1 -1 -1 -1 -1 -1 -1 -1 -1 -1 -1 -1 -1 -1 -1 -1 -1 -1 -1 -1 -1 -1 -1 -1 -1 -1 -1 -1 -1 -1 -0 0 -0 -1 -0 -1 -1 -0 0 0
-0 -1 -1 -0 -1 -1 -1 -1 -1 -1 -1 -2 -1 -2 -2 -1 -1 -1 -1 -1 -1 -1 -1 -1 -1 -1 -1 -1 -1 -1 -1 -1 -1 -0 0 0 0 0 -1 -1 -1 -1 -0
-1 -1 -1 -1 -1 0 -1 -1 -1 -1 -1 -2 -2 -1 -2 -2 -2 -2 -2 -2 -1 -1 -1 -1 -1 -1 -1 -1 -1 -1 -1 -1 1 1 1 1 0 -0 -1 -1 -1 -2 -1
-0 -1 -1 -1 -1 -1 -1 0 -0 -0 -1 -1 -1 -1 -1 -1 -1 -1 -1 -2 -2 -1 -1 -1 -1 -1 -1 -1 -1 -1 -1 -0 0 -0 -0 0 0 -0 -1 -2 -2 -1 -2
0 -0 -1 -1 -1 -1 -1 -0 1 0 -0 -0 -0 -0 -0 -1 -1 -1 -0 -1 -2 -2 -2 -2 -2 -2 -2 -2 -2 -1 -0 -1 -1 -1 -1 -0 1 -0 -1 -1 -2 -2 -2
1 0 -0 -1 -1 -1 -1 -1 -1 -1 -1 -1 -1 -1 -1 -1 -1 -1 1 0 -1 -1 -2 -2 -2 -1 -0 -1 -1 -0 -1 -1 -1 -1 -1 -0 0 -1 -2 -2 -2 -2 -2
1 1 -0 -0 -1 -1 -1 -1 -1 -1 -1 -1 -1 -1 -1 -1 -1 -1 -1 -1 -1 1 -1 -1 -1 -1 -1 -1 -1 -1 -1 -1 -1 -1 -1 -1 -1 -2 -2 -2 -2 -2 -2
1 1 0 -0 -0 -1 -1 -1 -1 -1 -1 -1 -1 -1 -1 -1 -1 -1 -1 -1 -1 -1 -1 -1 -1 -1 -1 -1 -1 -1 -1 -1 -1 -1 -1 0 -1 -2 -2 -2 -2 -2 -2
1 1 0 -0 -0 -0 -0 -1 -1 -1 -1 -1 -1 -1 -1 -1 -1 -1 -1 -1 -1 -1 -1 -1 -1 -1 -1 -1 -1 -1 -1 -1 -1 -1 -1 2 0 -1 -2 -2 -2 -2 -2
1 1 0 0 -0 -1 -0 -0 -1 -1 -1 -1 -1 -1 -1 -1 -1 -1 -1 -1 -1 -1 -1 -1 -1 -0 -0 -0 0 -0 -1 -1 -1 -1 -1 -1 1 -1 -1 -2 -2 -2 -2
1 1 0 0 -0 -0 -0 -0 -0 -1 -1 -1 -1 -1 -1 -1 -1 -1 -0 -0 -1 -1 -1 -1 -1 -1 -0 -0 0 -0 -0 -0 -1 -0 -0 -1 -1 1 -0 -1 -2 -2 -2
1 1 0 0 -0 -0 -0 -0 -0 -1 -1 -1 -1 -1 -1 -1 -1 -1 -0 -0 -1 -1 -1 -0 -0 0 0 0 0 0 0 -0 -0 -0 -1 -1 -1 -1 1 -0 -1 -1 -1
1 1 1 0 0 0 -0 -0 -1 -1 -0 -1 -1 -1 -1 -1 -1 -1 -0 -0 -1 -0 -0 0 0 0 1 1 1 0 0 0 0 -0 -0 -0 -0 -0 -0 1 1 0 -1
1 0 0 0 0 -0 -0 -0 -0 -0 -0 -1 -1 -1 -1 -1 -1 -1 -1 -0 -1 -0 0 0 1 0 1 1 1 1 0 0 -0 0 -0 0 0 0 -0 1 2 2 1
2 2 1 1 0 0 1 1 1 1 0 0 -0 -1 -1 -1 -1 -1 -0 -0 -0 0 0 0 1 1 1 1 2 2 1 1 1 0 -0 -0 -0 0 1 3 4 4 4
3 3 2 2 1 1 0 0 0 0 0 -0 -1 -0 0 0 -0 -0 -0 -0 0 0 0 0 1 2 1 1 3 3 5 3 1 2 3 3 5 5 6 6 6 6 5
4 4 3 2 2 1 1 1 1 1 1 2 1 1 1 0 0 -0 0 0 0 0 1 1 1 1 3 1 1 3 5 6 4 5 9 8 8 8 8 8 8 7 6
5 5 4 3 2 2 2 2 3 3 2 2 1 1 1 1 2 1 1 1 1 1 0 1 0 1 1 3 1 1 1 2 5 6 8 10 11 11 10 10 10 9 8
6 5 5 4 3 4 4 4 4 4 3 2 2 2 2 2 2 2 3 2 2 2 1 1 1 1 1 2 2 2 2 2 2 4 6 9 11 11 11 11 11 10 9
5 5 5 5 5 5 5 5 5 5 4 3 3 2 2 2 2 3 3 4 4 4 3 2 2 1 1 1 1 2 2 3 4 4 5 7 8 13 13 12 11 12 11